| time (UTC) | temp F | wind direction | speed MPH | gust MPH | rain 1hr in | rain 24hr in | rain mn in | humidity % | barometer mb |
| 20260506072553 | 52 | 7 | 0.0 | 0.0 | 0.00 | 0.00 | 0.20 | 92 | 1003.4 |
| 20260506071052 | 52 | 3 | 1.0 | 1.0 | 0.00 | 0.00 | 0.20 | 92 | 1003.7 |
| 20260506061049 | 52 | 47 | 0.0 | 0.0 | 0.00 | 0.00 | 0.16 | 92 | 1003.4 |
| 20260506051046 | 51 | 35 | 0.0 | 0.0 | 0.00 | 0.00 | 0.13 | 92 | 1003.4 |
| 20260506044044 | 51 | 28 | 0.0 | 0.0 | 0.00 | 0.00 | 0.13 | 92 | 1003.4 |
| 20260506042543 | 52 | 43 | 0.0 | 0.0 | 0.00 | 0.00 | 0.13 | 92 | 1003.4 |
| 20260506041042 | 52 | 5 | 0.0 | 0.0 | 0.05 | 0.00 | 0.13 | 92 | 1003.4 |
| 20260506035541 | 52 | 116 | 0.0 | 0.0 | 0.00 | 0.00 | 0.12 | 92 | 1003.7 |
| 20260506034041 | 52 | 357 | 0.0 | 0.0 | 0.00 | 0.00 | 0.12 | 92 | 1003.7 |
| 20260506032539 | 52 | 18 | 0.0 | 0.0 | 0.00 | 0.00 | 0.12 | 92 | 1003.4 |
| 20260506031039 | 52 | 0 | 0.0 | 0.0 | 0.00 | 0.00 | 0.11 | 92 | 1003.4 |
| 20260506025537 | 52 | 337 | 0.0 | 0.0 | 0.05 | 0.00 | 0.11 | 92 | 1003.7 |
| 20260506024036 | 52 | 54 | 0.0 | 0.0 | 0.07 | 0.00 | 0.10 | 92 | 1003.7 |
| 20260506022535 | 52 | 348 | 0.0 | 1.0 | 0.05 | 0.00 | 0.09 | 92 | 1004.0 |
| 20260506021035 | 52 | 103 | 0.0 | 0.0 | 0.07 | 0.00 | 0.08 | 92 | 1004.0 |
| 20260506015534 | 52 | 68 | 0.0 | 0.0 | 0.00 | 0.00 | 0.06 | 92 | 1004.0 |
| 20260506014033 | 52 | 11 | 0.0 | 0.0 | 0.00 | 0.00 | 0.05 | 92 | 1004.0 |
| 20260506012533 | 52 | 38 | 0.0 | 0.0 | 0.00 | 0.00 | 0.04 | 92 | 1004.4 |
| 20260506011031 | 52 | 359 | 0.0 | 0.0 | 0.00 | 0.00 | 0.04 | 92 | 1004.4 |
| 20260506005530 | 52 | 75 | 0.0 | 0.0 | 0.00 | 0.00 | 0.04 | 92 | 1004.4 |
| 20260506004029 | 52 | 56 | 0.0 | 1.0 | 0.00 | 0.00 | 0.04 | 92 | 1004.4 |
| 20260506002528 | 52 | 357 | 0.0 | 0.0 | 0.00 | 0.00 | 0.04 | 92 | 1004.4 |
| 20260506001027 | 52 | 35 | 0.0 | 0.0 | 0.00 | 0.00 | 0.04 | 92 | 1004.7 |
| 20260505235526 | 52 | 356 | 0.0 | 0.0 | 0.00 | 0.00 | 0.04 | 92 | 1004.7 |
| 20260505234025 | 52 | 3 | 0.0 | 0.0 | 0.00 | 0.00 | 0.04 | 92 | 1004.7 |
| 20260505232524 | 52 | 339 | 0.0 | 0.0 | 0.00 | 0.00 | 0.04 | 92 | 1004.7 |
| 20260505231023 | 53 | 36 | 0.0 | 0.0 | 0.07 | 0.00 | 0.04 | 92 | 1005.1 |
| 20260505225523 | 53 | 73 | 0.0 | 0.0 | 0.00 | 0.00 | 0.03 | 92 | 1005.1 |
| 20260505224022 | 53 | 40 | 0.0 | 1.0 | 0.05 | 0.00 | 0.03 | 92 | 1005.1 |
| 20260505222521 | 53 | 32 | 0.0 | 0.0 | 0.07 | 0.00 | 0.02 | 92 | 1005.1 |
| 20260505221020 | 53 | 28 | 0.0 | 0.0 | 0.07 | 0.00 | 0.01 | 92 | 1005.1 |
| 20260505215519 | 54 | 345 | 0.0 | 0.0 | 0.00 | 0.00 | 0.84 | 92 | 1005.4 |
| 20260505214018 | 54 | 32 | 0.0 | 0.0 | 0.07 | 0.00 | 0.83 | 92 | 1005.4 |
| 20260505212517 | 54 | 301 | 0.0 | 0.0 | 0.07 | 0.00 | 0.81 | 92 | 1005.4 |
| 20260505211016 | 54 | 20 | 0.0 | 0.0 | 0.12 | 0.00 | 0.80 | 92 | 1005.7 |
| 20260505205515 | 54 | 5 | 0.0 | 0.0 | 0.05 | 0.00 | 0.78 | 92 | 1005.4 |
| 20260505204014 | 54 | 132 | 0.0 | 0.0 | 0.07 | 0.00 | 0.77 | 92 | 1005.4 |
| 20260505202513 | 54 | 357 | 0.0 | 0.0 | 0.05 | 0.00 | 0.76 | 92 | 1005.4 |
| 20260505201012 | 55 | 261 | 0.0 | 0.0 | 0.07 | 0.00 | 0.74 | 92 | 1005.4 |
| 20260505195511 | 55 | 309 | 0.0 | 0.0 | 0.12 | 0.00 | 0.73 | 92 | 1005.4 |
| 20260505194010 | 55 | 3 | 0.0 | 0.0 | 0.12 | 0.00 | 0.71 | 92 | 1005.1 |
| 20260505192509 | 55 | 332 | 1.0 | 1.0 | 0.12 | 0.00 | 0.68 | 92 | 1005.1 |
| 20260505191008 | 55 | 341 | 1.0 | 2.0 | 0.19 | 0.00 | 0.66 | 92 | 1005.1 |
| 20260505185507 | 55 | 67 | 0.0 | 0.0 | 0.19 | 0.00 | 0.63 | 92 | 1005.1 |
| 20260505184007 | 55 | 3 | 0.0 | 1.0 | 0.12 | 0.00 | 0.59 | 91 | 1005.1 |
| 20260505182506 | 56 | 331 | 0.0 | 0.0 | 0.24 | 0.00 | 0.55 | 91 | 1005.1 |
| 20260505181005 | 56 | 59 | 0.0 | 1.0 | 0.26 | 0.00 | 0.49 | 91 | 1005.1 |
| 20260505175504 | 56 | 316 | 1.0 | 2.0 | 0.24 | 0.00 | 0.44 | 91 | 1005.1 |
| 20260505174000 | 56 | 9 | 0.0 | 0.0 | 0.17 | 0.00 | 0.39 | 91 | 1005.1 |
| 20260505172459 | 57 | 332 | 3.0 | 4.0 | 0.14 | 0.00 | 0.36 | 91 | 1005.1 |
| 20260505170958 | 57 | 354 | 0.0 | 0.0 | 0.19 | 0.00 | 0.33 | 90 | 1005.1 |
| 20260505165456 | 58 | 346 | 0.0 | 1.0 | 0.12 | 0.00 | 0.28 | 90 | 1005.1 |
| 20260505163956 | 58 | 33 | 1.0 | 1.0 | 0.19 | 0.00 | 0.24 | 89 | 1005.1 |
| 20260505162455 | 58 | 67 | 1.0 | 3.0 | 0.07 | 0.00 | 0.20 | 89 | 1005.1 |
| 20260505160953 | 59 | 344 | 1.0 | 1.0 | 0.12 | 0.00 | 0.18 | 89 | 1004.7 |
| 20260505152450 | 60 | 317 | 1.0 | 2.0 | 0.05 | 0.00 | 0.06 | 86 | 1005.1 |
| 20260505150949 | 61 | 353 | 1.0 | 1.0 | 0.05 | 0.00 | 0.04 | 83 | 1005.4 |
| 20260505123939 | 64 | 323 | 2.0 | 3.0 | 0.00 | 0.00 | 0.03 | 71 | 1006.4 |
| 20260505122438 | 64 | 59 | 0.0 | 0.0 | 0.00 | 0.00 | 0.03 | 71 | 1006.1 |
| 20260505120937 | 63 | 0 | 0.0 | 1.0 | 0.00 | 0.00 | 0.03 | 76 | 1006.1 |
| 20260505115436 | 63 | 79 | 0.0 | 0.0 | 0.00 | 0.00 | 0.03 | 73 | 1006.4 |
| 20260505113935 | 63 | 12 | 0.0 | 0.0 | 0.00 | 0.00 | 0.03 | 73 | 1006.4 |
| 20260505112434 | 63 | 68 | 0.0 | 0.0 | 0.00 | 0.00 | 0.03 | 76 | 1006.4 |
| 20260505110932 | 62 | 61 | 2.0 | 2.0 | 0.00 | 0.00 | 0.03 | 75 | 1006.4 |
| 20260505100928 | 59 | 59 | 0.0 | 0.0 | 0.00 | 0.00 | 0.03 | 86 | 1007.1 |
| 20260505095428 | 60 | 350 | 0.0 | 0.0 | 0.00 | 0.00 | 0.03 | 87 | 1007.1 |
| 20260505093927 | 60 | 49 | 1.0 | 1.0 | 0.00 | 0.00 | 0.03 | 86 | 1007.1 |
| 20260505092426 | 59 | 61 | 1.0 | 1.0 | 0.00 | 0.00 | 0.03 | 88 | 1007.4 |
| 20260505090926 | 59 | 8 | 0.0 | 0.0 | 0.00 | 0.00 | 0.03 | 89 | 1007.4 |
| 20260505085425 | 59 | 342 | 0.0 | 0.0 | 0.00 | 0.00 | 0.03 | 90 | 1007.4 |
| 20260505083924 | 59 | 345 | 0.0 | 0.0 | 0.00 | 0.00 | 0.03 | 90 | 1007.4 |
| 20260505082423 | 59 | 12 | 0.0 | 0.0 | 0.00 | 0.00 | 0.03 | 91 | 1007.4 |
| 20260505080922 | 59 | 13 | 0.0 | 0.0 | 0.00 | 0.00 | 0.03 | 91 | 1007.4 |